Вернуться в каталог

QIANFAN-209

АктивенСвязьPO
NORAD 69808·PAYLOAD·🇨🇳 China

Запущен Jul 4, 2026 с Taiyuan Satellite Launch Center

Loading…

Ближайшие Пролёты (ближайшие 24 часа)

TLE

СвежийSource: Space-Track

Эпоха: Sep 14, 2026, 21:40 UTC

1 69808U 26153J   26257.90324967 -.01885654  00000-0 -13523+1 0  9993
2 69808  88.9973 352.0868 0006325 319.9611  40.1101 14.00872923 10267

Отслеживайте QIANFAN-209 в реальном времени с AllMySat

Download on the App Store